Location: Eymir
(36.7333°N, 29.7833°E)
Time: 18:44:51
(UTC+00:00)

Sich 1 - Pass Details

Date: 14 January 2026
Orbit: 572 x 598 km, 82.5° (Epoch: 17 February)

Event Time Altitude Azimuth Distance (km) Brightness Sun altitude
Rises 04:24:08 0° 227° (SW) 2,807 6.2 -9.8°
Reaches altitude 10° 04:27:11 10° 251° (WSW) 1,906 5.1 -9.3°
Maximum altitude 04:29:37 15° 287° (WNW) 1,608 4.5 -8.8°
Drops below altitude 10° 04:32:02 10° 322° (NW) 1,904 5.1 -8.3°
Sets 04:35:06 0° 346° (NNW) 2,803 6.1 -7.8°
